Meteo orario Goldiger Berg

Oggi, 19 Aprile, Lunedi

Tempo Temperatura Precipitazioni Vento Pressione Umidità
00:00 +2°C° 0 mm 0 m/s 719 mm Hg 95%
01:00 +2°C° 0 mm 0 m/s 719 mm Hg 94%
02:00 +2°C° 0 mm 0 m/s 719 mm Hg 94%
03:00 +2°C° 0 mm 0 m/s 719 mm Hg 94%
04:00 +1°C° 0 mm 0 m/s 719 mm Hg 94%
05:00 +2°C° 0 mm 0 m/s 719 mm Hg 93%
06:00 +2°C° 0 mm 0 m/s 719 mm Hg 91%
07:00 +3°C° 0 mm 0 m/s 719 mm Hg 90%
08:00 +5°C° 0 mm 0 m/s 719 mm Hg 81%
09:00 +6°C° 0 mm 0 m/s 719 mm Hg 73%
10:00 +8°C° 0 mm 0 m/s 719 mm Hg 64%
11:00 +9°C° 0 mm 0 m/s 718 mm Hg 60%
12:00 +11°C° 0 mm 1 m/s 718 mm Hg 56%
13:00 +11°C° 0 mm 1 m/s 718 mm Hg 51%
14:00 +11°C° 0 mm 1 m/s 718 mm Hg 52%
15:00 +10°C° 0 mm 0 m/s 717 mm Hg 53%
16:00 +10°C° 0 mm 0 m/s 717 mm Hg 54%
17:00 +9°C° 0 mm 0 m/s 717 mm Hg 61%
18:00 +7°C° 0 mm 0 m/s 717 mm Hg 68%
19:00 +6°C° 0 mm 0 m/s 717 mm Hg 75%
20:00 +6°C° 0 mm 1 m/s 717 mm Hg 79%
21:00 +5°C° 0 mm 1 m/s 718 mm Hg 82%
22:00 +4°C° 0 mm 1 m/s 718 mm Hg 85%
23:00 +3°C° 0 mm 1 m/s 718 mm Hg 86%

Domani, 20 Aprile, Martedi

Tempo Temperatura Precipitazioni Vento Pressione Umidità
00:00 +3°C° 0 mm 1 m/s 718 mm Hg 87%
01:00 +2°C° 0 mm 1 m/s 717 mm Hg 89%
02:00 +2°C° 0 mm 1 m/s 717 mm Hg 89%
03:00 +1°C° 0 mm 1 m/s 717 mm Hg 89%
04:00 +1°C° 0 mm 1 m/s 717 mm Hg 89%
05:00 +2°C° 0 mm 1 m/s 717 mm Hg 84%
06:00 +3°C° 0 mm 1 m/s 718 mm Hg 80%
07:00 +3°C° 0 mm 0 m/s 718 mm Hg 75%
08:00 +7°C° 0 mm 1 m/s 717 mm Hg 69%
09:00 +9°C° 0 mm 1 m/s 717 mm Hg 64%
10:00 +11°C° 0 mm 1 m/s 717 mm Hg 58%
11:00 +12°C° 0 mm 1 m/s 717 mm Hg 55%
12:00 +13°C° 0 mm 1 m/s 716 mm Hg 52%
13:00 +14°C° 0 mm 1 m/s 716 mm Hg 49%
14:00 +14°C° 0.1 mm 1 m/s 716 mm Hg 49%
15:00 +14°C° 0.1 mm 1 m/s 715 mm Hg 49%
16:00 +14°C° 0.1 mm 1 m/s 715 mm Hg 48%
17:00 +13°C° 0 mm 1 m/s 715 mm Hg 57%
18:00 +11°C° 0 mm 1 m/s 715 mm Hg 65%
19:00 +9°C° 0 mm 1 m/s 715 mm Hg 74%
20:00 +8°C° 0 mm 1 m/s 716 mm Hg 78%
21:00 +6°C° 0 mm 1 m/s 716 mm Hg 83%
22:00 +5°C° 0 mm 1 m/s 716 mm Hg 87%
23:00 +5°C° 0 mm 1 m/s 716 mm Hg 88%

Dopodomani, 21 Aprile, Mercoledi

Tempo Temperatura Precipitazioni Vento Pressione Umidità
00:00 +4°C° 0 mm 1 m/s 716 mm Hg 88%
01:00 +4°C° 0 mm 1 m/s 716 mm Hg 89%
02:00 +3°C° 0 mm 1 m/s 716 mm Hg 89%
03:00 +3°C° 0 mm 1 m/s 716 mm Hg 89%
04:00 +3°C° 0 mm 1 m/s 716 mm Hg 89%
05:00 +4°C° 0 mm 1 m/s 717 mm Hg 85%
06:00 +5°C° 0 mm 1 m/s 717 mm Hg 81%
07:00 +5°C° 0 mm 0 m/s 717 mm Hg 77%
08:00 +7°C° 0 mm 0 m/s 717 mm Hg 69%
09:00 +10°C° 0 mm 0 m/s 717 mm Hg 61%
10:00 +13°C° 0 mm 0 m/s 717 mm Hg 54%
11:00 +14°C° 0 mm 0 m/s 717 mm Hg 50%
12:00 +15°C° 0 mm 0 m/s 716 mm Hg 46%
13:00 +18°C° 0 mm 1 m/s 716 mm Hg 42%
14:00 +18°C° 0 mm 1 m/s 716 mm Hg 42%
15:00 +18°C° 0 mm 1 m/s 715 mm Hg 42%
16:00 +18°C° 0 mm 1 m/s 715 mm Hg 41%
17:00 +15°C° 0.1 mm 1 m/s 715 mm Hg 53%
18:00 +13°C° 0.1 mm 1 m/s 715 mm Hg 65%
19:00 +11°C° 0.1 mm 1 m/s 715 mm Hg 77%
20:00 +9°C° 0.2 mm 1 m/s 716 mm Hg 81%
21:00 +8°C° 0.2 mm 1 m/s 716 mm Hg 86%
22:00 +7°C° 0.2 mm 1 m/s 717 mm Hg 91%
23:00 +6°C° 0 mm 1 m/s 717 mm Hg 91%

22 Aprile, Giovedi

Tempo Temperatura Precipitazioni Vento Pressione Umidità
00:00 +6°C° 0 mm 1 m/s 717 mm Hg 91%
01:00 +5°C° 0 mm 1 m/s 717 mm Hg 91%
02:00 +5°C° 0 mm 1 m/s 717 mm Hg 92%
03:00 +5°C° 0 mm 1 m/s 717 mm Hg 92%
04:00 +4°C° 0 mm 1 m/s 717 mm Hg 92%
05:00 +5°C° 0 mm 1 m/s 717 mm Hg 91%
06:00 +5°C° 0 mm 0 m/s 718 mm Hg 89%
07:00 +6°C° 0 mm 0 m/s 718 mm Hg 88%
08:00 +7°C° 0 mm 0 m/s 718 mm Hg 82%
09:00 +10°C° 0 mm 1 m/s 718 mm Hg 77%
10:00 +12°C° 0 mm 1 m/s 718 mm Hg 71%
11:00 +13°C° 0.2 mm 1 m/s 718 mm Hg 70%
12:00 +13°C° 0.2 mm 2 m/s 718 mm Hg 69%
13:00 +13°C° 0.2 mm 2 m/s 718 mm Hg 68%
14:00 +13°C° 0.4 mm 2 m/s 718 mm Hg 71%
15:00 +13°C° 0.4 mm 2 m/s 718 mm Hg 74%
16:00 +12°C° 0.4 mm 2 m/s 718 mm Hg 77%
17:00 +10°C° 0.3 mm 2 m/s 718 mm Hg 81%
18:00 +10°C° 0.3 mm 1 m/s 719 mm Hg 86%
19:00 +9°C° 0.3 mm 1 m/s 719 mm Hg 90%
20:00 +8°C° 0 mm 1 m/s 719 mm Hg 90%
21:00 +7°C° 0 mm 1 m/s 720 mm Hg 90%
22:00 +5°C° 0 mm 2 m/s 720 mm Hg 91%
23:00 +5°C° 0 mm 1 m/s 720 mm Hg 91%

23 Aprile, Venerdi

Tempo Temperatura Precipitazioni Vento Pressione Umidità
00:00 +4°C° 0 mm 1 m/s 720 mm Hg 91%
01:00 +3°C° 0 mm 1 m/s 720 mm Hg 91%
02:00 +2°C° 0 mm 1 m/s 720 mm Hg 91%
03:00 +2°C° 0 mm 1 m/s 720 mm Hg 92%
04:00 +1°C° 0 mm 1 m/s 720 mm Hg 93%
05:00 +2°C° 0 mm 1 m/s 720 mm Hg 91%
06:00 +3°C° 0 mm 1 m/s 721 mm Hg 89%
07:00 +3°C° 0 mm 1 m/s 721 mm Hg 87%
08:00 +5°C° 0 mm 1 m/s 721 mm Hg 78%
09:00 +6°C° 0 mm 2 m/s 721 mm Hg 69%
10:00 +8°C° 0 mm 3 m/s 721 mm Hg 60%
11:00 +10°C° 0 mm 3 m/s 721 mm Hg 54%
12:00 +11°C° 0 mm 3 m/s 720 mm Hg 48%
13:00 +13°C° 0 mm 3 m/s 720 mm Hg 41%
14:00 +13°C° 0 mm 3 m/s 720 mm Hg 41%
15:00 +13°C° 0 mm 3 m/s 720 mm Hg 40%
16:00 +13°C° 0 mm 3 m/s 720 mm Hg 40%
17:00 +12°C° 0 mm 3 m/s 720 mm Hg 49%
18:00 +10°C° 0 mm 2 m/s 720 mm Hg 58%
19:00 +8°C° 0 mm 2 m/s 721 mm Hg 67%
20:00 +6°C° 0 mm 2 m/s 721 mm Hg 73%
21:00 +6°C° 0 mm 1 m/s 721 mm Hg 79%
22:00 +4°C° 0 mm 1 m/s 722 mm Hg 85%
23:00 +4°C° 0 mm 1 m/s 722 mm Hg 86%

24 Aprile, Sabato

Tempo Temperatura Precipitazioni Vento Pressione Umidità
00:00 +3°C° 0 mm 1 m/s 722 mm Hg 87%
01:00 +3°C° 0 mm 1 m/s 722 mm Hg 88%
02:00 +2°C° 0 mm 1 m/s 722 mm Hg 89%
03:00 +2°C° 0 mm 1 m/s 722 mm Hg 90%
04:00 0°C° 0 mm 0 m/s 722 mm Hg 90%
05:00 +1°C° 0 mm 0 m/s 722 mm Hg 86%
06:00 +3°C° 0 mm 0 m/s 722 mm Hg 81%
07:00 +4°C° 0 mm 0 m/s 722 mm Hg 76%
08:00 +7°C° 0 mm 1 m/s 722 mm Hg 67%
09:00 +8°C° 0 mm 2 m/s 722 mm Hg 58%
10:00 +12°C° 0 mm 2 m/s 722 mm Hg 49%
11:00 +13°C° 0 mm 2 m/s 722 mm Hg 45%
12:00 +14°C° 0 mm 3 m/s 722 mm Hg 40%
13:00 +16°C° 0 mm 3 m/s 721 mm Hg 36%
14:00 +16°C° 0 mm 3 m/s 721 mm Hg 37%
15:00 +16°C° 0 mm 3 m/s 721 mm Hg 38%
16:00 +17°C° 0 mm 3 m/s 721 mm Hg 39%
17:00 +14°C° 0 mm 3 m/s 721 mm Hg 49%
18:00 +13°C° 0 mm 2 m/s 721 mm Hg 60%
19:00 +10°C° 0 mm 2 m/s 721 mm Hg 70%
20:00 +8°C° 0 mm 2 m/s 722 mm Hg 76%
21:00 +6°C° 0 mm 2 m/s 722 mm Hg 83%
22:00 +6°C° 0 mm 1 m/s 722 mm Hg 89%
23:00 +5°C° 0 mm 1 m/s 722 mm Hg 90%
Mostrare altro

Abbiamo bisogno del tuo consenso

Meteoprog e i nostri fornitori di servizi possono memorizzare e accedere a dati personali come cookie, identificatori di dispositivi o altre tecnologie simili sul tuo dispositivo e possono elaborare tali dati per personalizzare i contenuti e gli annunci, nonché fornire funzionalità dei social media e analizzarne il traffico.

  • Archiviare e/o accedere alle informazioni sul tuo dispositivo

    Cookie, identificatori di dispositivi o altre informazioni possono essere memorizzati o resi accessibili sul tuo dispositivo per le finalità sopra indicate.

  • Annunci e contenuti personalizzati, misurazione di annunci e contenuti, approfondimenti sul pubblico e sviluppo di prodotti

    Gli annunci e i contenuti possono essere personalizzati in base a un profilo. È possibile aggiungere più dati per personalizzare meglio annunci e contenuti. È possibile misurare il rendimento degli annunci e dei contenuti. È possibile ricavare informazioni sul pubblico che ha visto gli annunci e i contenuti. Tali dati possono essere utilizzati per sviluppare o migliorare l'esperienza, i sistemi e il software dell'utente.

Cliccando su “Accetto”, acconsenti all'uso di cookie, identificatori di dispositivo, web beacon o altre tecnologie simili. Puoi modificare le impostazioni nel browser del tuo dispositivo.

Per determinati scopi, è possibile fare affidamento su interessi legali, piuttosto che sul consenso. Puoi approfondire questo argomento consultando la nostra Informativa sulla privacy e sui cookie.